Year,Month,Day,Hour,Minute,Value (Times are PST for temperature in C)
2009,05,23,00,00,9.00
2009,05,23,00,01,8.90
2009,05,23,00,02,8.90
2009,05,23,00,03,8.90
2009,05,23,00,04,8.90
2009,05,23,00,05,8.90
2009,05,23,00,06,8.80
2009,05,23,00,07,8.80
2009,05,23,00,08,8.80
2009,05,23,00,09,8.80
2009,05,23,00,10,8.80
2009,05,23,00,11,8.80
2009,05,23,00,12,8.80
2009,05,23,00,13,8.70
2009,05,23,00,14,8.70
2009,05,23,00,15,8.70
2009,05,23,00,16,8.70
2009,05,23,00,17,8.70
2009,05,23,00,18,8.70
2009,05,23,00,19,8.70
2009,05,23,00,20,8.70
2009,05,23,00,21,8.60
2009,05,23,00,22,8.60
2009,05,23,00,23,8.60
2009,05,23,00,24,8.60
2009,05,23,00,25,8.60
2009,05,23,00,26,8.60
2009,05,23,00,27,8.50
2009,05,23,00,28,8.50
2009,05,23,00,29,8.40
2009,05,23,00,30,8.40
2009,05,23,00,31,8.40
2009,05,23,00,32,8.40
2009,05,23,00,33,8.30
2009,05,23,00,34,8.30
2009,05,23,00,35,8.30
2009,05,23,00,36,8.30
2009,05,23,00,37,8.30
2009,05,23,00,38,8.20
2009,05,23,00,39,8.20
2009,05,23,00,40,8.20
2009,05,23,00,41,8.20
2009,05,23,00,42,8.20
2009,05,23,00,43,8.20
2009,05,23,00,44,8.20
2009,05,23,00,45,8.20
2009,05,23,00,46,8.20
2009,05,23,00,47,8.20
2009,05,23,00,48,8.20
2009,05,23,00,49,8.20
2009,05,23,00,50,8.20
2009,05,23,00,51,8.20
2009,05,23,00,52,8.20
2009,05,23,00,53,8.20
2009,05,23,00,54,8.20
2009,05,23,00,55,8.20
2009,05,23,00,56,8.20
2009,05,23,00,57,8.20
2009,05,23,00,58,8.20
2009,05,23,00,59,8.20
2009,05,23,01,00,8.20
2009,05,23,01,01,8.20
2009,05,23,01,02,8.20
2009,05,23,01,03,8.20
2009,05,23,01,04,8.20
2009,05,23,01,05,8.20
2009,05,23,01,06,8.20
2009,05,23,01,07,8.20
2009,05,23,01,08,8.20
2009,05,23,01,09,8.20
2009,05,23,01,10,8.20
2009,05,23,01,11,8.20
2009,05,23,01,12,8.10
2009,05,23,01,13,8.10
2009,05,23,01,14,8.10
2009,05,23,01,15,8.10
2009,05,23,01,16,8.00
2009,05,23,01,17,8.00
2009,05,23,01,18,8.00
2009,05,23,01,19,8.00
2009,05,23,01,20,7.90
2009,05,23,01,21,7.90
2009,05,23,01,22,7.90
2009,05,23,01,23,7.90
2009,05,23,01,24,7.80
2009,05,23,01,25,7.80
2009,05,23,01,26,7.80
2009,05,23,01,27,7.80
2009,05,23,01,28,7.80
2009,05,23,01,29,7.80
2009,05,23,01,30,7.70
2009,05,23,01,31,7.70
2009,05,23,01,32,7.70
2009,05,23,01,33,7.70
2009,05,23,01,34,7.70
2009,05,23,01,35,7.70
2009,05,23,01,36,7.70
2009,05,23,01,37,7.60
2009,05,23,01,38,7.60
2009,05,23,01,39,7.60
2009,05,23,01,40,7.60
2009,05,23,01,41,7.60
2009,05,23,01,42,7.60
2009,05,23,01,43,7.50
2009,05,23,01,44,7.50
2009,05,23,01,45,7.50
2009,05,23,01,46,7.50
2009,05,23,01,47,7.40
2009,05,23,01,48,7.40
2009,05,23,01,49,7.40
2009,05,23,01,50,7.40
2009,05,23,01,51,7.40
2009,05,23,01,52,7.40
2009,05,23,01,53,7.40
2009,05,23,01,54,7.30
2009,05,23,01,55,7.30
2009,05,23,01,56,7.30
2009,05,23,01,57,7.30
2009,05,23,01,58,7.30
2009,05,23,01,59,7.30
2009,05,23,02,00,7.30
2009,05,23,02,01,7.30
2009,05,23,02,02,7.20
2009,05,23,02,03,7.20
2009,05,23,02,04,7.20
2009,05,23,02,05,7.20
2009,05,23,02,06,7.20
2009,05,23,02,07,7.20
2009,05,23,02,08,7.20
2009,05,23,02,09,7.20
2009,05,23,02,10,7.10
2009,05,23,02,11,7.10
2009,05,23,02,12,7.10
2009,05,23,02,13,7.10
2009,05,23,02,14,7.00
2009,05,23,02,15,7.00
2009,05,23,02,16,7.00
2009,05,23,02,17,6.90
2009,05,23,02,18,6.90
2009,05,23,02,19,6.90
2009,05,23,02,20,6.80
2009,05,23,02,21,6.80
2009,05,23,02,22,6.80
2009,05,23,02,23,6.80
2009,05,23,02,24,6.80
2009,05,23,02,25,6.80
2009,05,23,02,26,6.80
2009,05,23,02,27,6.80
2009,05,23,02,28,6.80
2009,05,23,02,29,6.80
2009,05,23,02,30,6.80
2009,05,23,02,31,6.70
2009,05,23,02,32,6.70
2009,05,23,02,33,6.70
2009,05,23,02,34,6.70
2009,05,23,02,35,6.70
2009,05,23,02,36,6.70
2009,05,23,02,37,6.70
2009,05,23,02,38,6.70
2009,05,23,02,39,6.70
2009,05,23,02,40,6.70
2009,05,23,02,41,6.70
2009,05,23,02,42,6.70
2009,05,23,02,43,6.70
2009,05,23,02,44,6.70
2009,05,23,02,45,6.60
2009,05,23,02,46,6.60
2009,05,23,02,47,6.60
2009,05,23,02,48,6.60
2009,05,23,02,49,6.60
2009,05,23,02,50,6.60
2009,05,23,02,51,6.60
2009,05,23,02,52,6.50
2009,05,23,02,53,6.50
2009,05,23,02,54,6.50
2009,05,23,02,55,6.50
2009,05,23,02,56,6.50
2009,05,23,02,57,6.40
2009,05,23,02,58,6.40
2009,05,23,02,59,6.40
2009,05,23,03,00,6.40
2009,05,23,03,01,6.40
2009,05,23,03,02,6.40
2009,05,23,03,03,6.30
2009,05,23,03,04,6.30
2009,05,23,03,05,6.30
2009,05,23,03,06,6.30
2009,05,23,03,07,6.20
2009,05,23,03,08,6.20
2009,05,23,03,09,6.20
2009,05,23,03,10,6.20
2009,05,23,03,11,6.20
2009,05,23,03,12,6.20
2009,05,23,03,13,6.20
2009,05,23,03,14,6.20
2009,05,23,03,15,6.20
2009,05,23,03,16,6.20
2009,05,23,03,17,6.20
2009,05,23,03,18,6.20
2009,05,23,03,19,6.20
2009,05,23,03,20,6.20
2009,05,23,03,21,6.20
2009,05,23,03,22,6.20
2009,05,23,03,23,6.20
2009,05,23,03,24,6.20
2009,05,23,03,25,6.20
2009,05,23,03,26,6.20
2009,05,23,03,27,6.20
2009,05,23,03,28,6.20
2009,05,23,03,29,6.20
2009,05,23,03,30,6.20
2009,05,23,03,31,6.20
2009,05,23,03,32,6.20
2009,05,23,03,33,6.20
2009,05,23,03,34,6.20
2009,05,23,03,35,6.20
2009,05,23,03,36,6.10
2009,05,23,03,37,6.10
2009,05,23,03,38,6.10
2009,05,23,03,39,6.10
2009,05,23,03,40,6.10
2009,05,23,03,41,6.00
2009,05,23,03,42,6.00
2009,05,23,03,43,6.00
2009,05,23,03,44,5.90
2009,05,23,03,45,5.90
2009,05,23,03,46,5.90
2009,05,23,03,47,5.90
2009,05,23,03,48,5.90
2009,05,23,03,49,5.90
2009,05,23,03,50,5.90
2009,05,23,03,51,5.80
2009,05,23,03,52,5.80
2009,05,23,03,53,5.80
2009,05,23,03,54,5.80
2009,05,23,03,55,5.80
2009,05,23,03,56,5.80
2009,05,23,03,57,5.80
2009,05,23,03,58,5.80
2009,05,23,03,59,5.80
2009,05,23,04,00,5.80
2009,05,23,04,01,5.80
2009,05,23,04,02,5.80
2009,05,23,04,03,5.80
2009,05,23,04,04,5.80
2009,05,23,04,05,5.80
2009,05,23,04,06,5.80
2009,05,23,04,07,5.80
2009,05,23,04,08,5.80
2009,05,23,04,09,5.80
2009,05,23,04,10,5.80
2009,05,23,04,11,5.80
2009,05,23,04,12,5.80
2009,05,23,04,13,5.80
2009,05,23,04,14,5.70
2009,05,23,04,15,5.70
2009,05,23,04,16,5.70
2009,05,23,04,17,5.70
2009,05,23,04,18,5.70
2009,05,23,04,19,5.70
2009,05,23,04,20,5.70
2009,05,23,04,21,5.70
2009,05,23,04,22,5.70
2009,05,23,04,23,5.60
2009,05,23,04,24,5.60
2009,05,23,04,25,5.60
2009,05,23,04,26,5.60
2009,05,23,04,27,5.60
2009,05,23,04,28,5.60
2009,05,23,04,29,5.60
2009,05,23,04,30,5.50
2009,05,23,04,31,5.50
2009,05,23,04,32,5.50
2009,05,23,04,33,5.50
2009,05,23,04,34,5.50
2009,05,23,04,35,5.50
2009,05,23,04,36,5.50
2009,05,23,04,37,5.50
2009,05,23,04,38,5.40
2009,05,23,04,39,5.40
2009,05,23,04,40,5.40
2009,05,23,04,41,5.40
2009,05,23,04,42,5.40
2009,05,23,04,43,5.40
2009,05,23,04,44,5.40
2009,05,23,04,45,5.40
2009,05,23,04,46,5.40
2009,05,23,04,47,5.40
2009,05,23,04,48,5.40
2009,05,23,04,49,5.40
2009,05,23,04,50,5.40
2009,05,23,04,51,5.40
2009,05,23,04,52,5.40
2009,05,23,04,53,5.40
2009,05,23,04,54,5.40
2009,05,23,04,55,5.40
2009,05,23,04,56,5.40
2009,05,23,04,57,5.40
2009,05,23,04,58,5.30
2009,05,23,04,59,5.30
2009,05,23,05,00,5.30
2009,05,23,05,01,5.30
2009,05,23,05,02,5.30
2009,05,23,05,03,5.30
2009,05,23,05,04,5.30
2009,05,23,05,05,5.20
2009,05,23,05,06,5.20
2009,05,23,05,07,5.20
2009,05,23,05,08,5.20
2009,05,23,05,09,5.20
2009,05,23,05,10,5.20
2009,05,23,05,11,5.10
2009,05,23,05,12,5.10
2009,05,23,05,13,5.10
2009,05,23,05,14,5.10
2009,05,23,05,15,5.00
2009,05,23,05,16,5.00
2009,05,23,05,17,5.00
2009,05,23,05,18,4.90
2009,05,23,05,19,4.90
2009,05,23,05,20,4.90
2009,05,23,05,21,4.90
2009,05,23,05,22,4.90
2009,05,23,05,23,4.90
2009,05,23,05,24,4.90
2009,05,23,05,25,4.90
2009,05,23,05,26,4.90
2009,05,23,05,27,4.90
2009,05,23,05,28,4.90
2009,05,23,05,29,4.90
2009,05,23,05,30,4.90
2009,05,23,05,31,4.90
2009,05,23,05,32,4.90
2009,05,23,05,33,4.90
2009,05,23,05,34,5.00
2009,05,23,05,35,5.00
2009,05,23,05,36,5.10
2009,05,23,05,37,5.10
2009,05,23,05,38,5.10
2009,05,23,05,39,5.10
2009,05,23,05,40,5.10
2009,05,23,05,41,5.10
2009,05,23,05,42,5.20
2009,05,23,05,43,5.20
2009,05,23,05,44,5.20
2009,05,23,05,45,5.20
2009,05,23,05,46,5.20
2009,05,23,05,47,5.20
2009,05,23,05,48,5.20
2009,05,23,05,49,5.20
2009,05,23,05,50,5.20
2009,05,23,05,51,5.20
2009,05,23,05,52,5.20
2009,05,23,05,53,5.20
2009,05,23,05,54,5.20
2009,05,23,05,55,5.20
2009,05,23,05,56,5.20
2009,05,23,05,57,5.20
2009,05,23,05,58,5.20
2009,05,23,05,59,5.20
2009,05,23,06,00,5.20
2009,05,23,06,01,5.20
2009,05,23,06,02,5.20
2009,05,23,06,03,5.20
2009,05,23,06,04,5.20
2009,05,23,06,05,5.10
2009,05,23,06,06,5.10
2009,05,23,06,07,5.10
2009,05,23,06,08,5.10
2009,05,23,06,09,5.10
2009,05,23,06,10,5.10
2009,05,23,06,11,5.10
2009,05,23,06,12,5.10
2009,05,23,06,13,5.10
2009,05,23,06,14,5.10
2009,05,23,06,15,5.20
2009,05,23,06,16,5.20
2009,05,23,06,17,5.20
2009,05,23,06,18,5.20
2009,05,23,06,19,5.20
2009,05,23,06,20,5.20
2009,05,23,06,21,5.20
2009,05,23,06,22,5.20
2009,05,23,06,23,5.20
2009,05,23,06,24,5.30
2009,05,23,06,25,5.30
2009,05,23,06,26,5.30
2009,05,23,06,27,5.30
2009,05,23,06,28,5.30
2009,05,23,06,29,5.30
2009,05,23,06,30,5.30
2009,05,23,06,31,5.30
2009,05,23,06,32,5.40
2009,05,23,06,33,5.40
2009,05,23,06,34,5.40
2009,05,23,06,35,5.40
2009,05,23,06,36,5.50
2009,05,23,06,37,5.50
2009,05,23,06,38,5.60
2009,05,23,06,39,5.60
2009,05,23,06,40,5.70
2009,05,23,06,41,5.80
2009,05,23,06,42,5.80
2009,05,23,06,43,5.90
2009,05,23,06,44,6.00
2009,05,23,06,45,6.10
2009,05,23,06,46,6.20
2009,05,23,06,47,6.20
2009,05,23,06,48,6.30
2009,05,23,06,49,6.30
2009,05,23,06,50,6.30
2009,05,23,06,51,6.40
2009,05,23,06,52,6.40
2009,05,23,06,53,6.50
2009,05,23,06,54,6.50
2009,05,23,06,55,6.60
2009,05,23,06,56,6.60
2009,05,23,06,57,6.60
2009,05,23,06,58,6.70
2009,05,23,06,59,6.80
2009,05,23,07,00,6.90
2009,05,23,07,01,7.10
2009,05,23,07,02,7.20
2009,05,23,07,03,7.20
2009,05,23,07,04,7.40
2009,05,23,07,05,7.40
2009,05,23,07,06,7.50
2009,05,23,07,07,7.60
2009,05,23,07,08,7.70
2009,05,23,07,09,7.80
2009,05,23,07,10,7.90
2009,05,23,07,11,8.00
2009,05,23,07,12,8.10
2009,05,23,07,13,8.20
2009,05,23,07,14,8.30
2009,05,23,07,15,8.50
2009,05,23,07,16,8.60
2009,05,23,07,17,8.70
2009,05,23,07,18,8.90
2009,05,23,07,19,9.00
2009,05,23,07,20,9.10
2009,05,23,07,21,9.20
2009,05,23,07,22,9.20
2009,05,23,07,23,9.30
2009,05,23,07,24,9.40
2009,05,23,07,25,9.50
2009,05,23,07,26,9.60
2009,05,23,07,27,9.80
2009,05,23,07,28,9.90
2009,05,23,07,29,10.10
2009,05,23,07,30,10.30
2009,05,23,07,31,10.40
2009,05,23,07,32,10.50
2009,05,23,07,33,10.60
2009,05,23,07,34,10.60
2009,05,23,07,35,10.70
2009,05,23,07,36,10.70
2009,05,23,07,37,10.70
2009,05,23,07,38,10.70
2009,05,23,07,39,10.70
2009,05,23,07,40,10.80
2009,05,23,07,41,10.80
2009,05,23,07,42,10.80
2009,05,23,07,43,10.90
2009,05,23,07,44,11.00
2009,05,23,07,45,11.10
2009,05,23,07,46,11.10
2009,05,23,07,47,11.20
2009,05,23,07,48,11.20
2009,05,23,07,49,11.30
2009,05,23,07,50,11.30
2009,05,23,07,51,11.30
2009,05,23,07,52,11.40
2009,05,23,07,53,11.40
2009,05,23,07,54,11.50
2009,05,23,07,55,11.60
2009,05,23,07,56,11.70
2009,05,23,07,57,11.70
2009,05,23,07,58,11.80
2009,05,23,07,59,11.90
2009,05,23,08,00,12.00
2009,05,23,08,01,12.10
2009,05,23,08,02,12.10
2009,05,23,08,03,12.20
2009,05,23,08,04,12.30
2009,05,23,08,05,12.40
2009,05,23,08,06,12.40
2009,05,23,08,07,12.50
2009,05,23,08,08,12.70
2009,05,23,08,09,12.80
2009,05,23,08,10,12.90
2009,05,23,08,11,12.90
2009,05,23,08,12,13.00
2009,05,23,08,13,13.10
2009,05,23,08,14,13.20
2009,05,23,08,15,13.20
2009,05,23,08,16,13.20
2009,05,23,08,17,13.30
2009,05,23,08,18,13.30
2009,05,23,08,19,13.40
2009,05,23,08,20,13.40
2009,05,23,08,21,13.50
2009,05,23,08,22,13.50
2009,05,23,08,23,13.60
2009,05,23,08,24,13.60
2009,05,23,08,25,13.60
2009,05,23,08,26,13.60
2009,05,23,08,27,13.60
2009,05,23,08,28,13.60
2009,05,23,08,29,13.50
2009,05,23,08,30,13.50
2009,05,23,08,31,13.60
2009,05,23,08,32,13.60
2009,05,23,08,33,13.60
2009,05,23,08,34,13.70
2009,05,23,08,35,13.70
2009,05,23,08,36,13.70
2009,05,23,08,37,13.70
2009,05,23,08,38,13.70
2009,05,23,08,39,13.60
2009,05,23,08,40,13.60
2009,05,23,08,41,13.60
2009,05,23,08,42,13.60
2009,05,23,08,43,13.70
2009,05,23,08,44,13.70
2009,05,23,08,45,13.80
2009,05,23,08,46,13.80
2009,05,23,08,47,13.80
2009,05,23,08,48,13.90
2009,05,23,08,49,13.90
2009,05,23,08,50,13.90
2009,05,23,08,51,14.00
2009,05,23,08,52,14.10
2009,05,23,08,53,14.10
2009,05,23,08,54,14.20
2009,05,23,08,55,14.20
2009,05,23,08,56,14.20
2009,05,23,08,57,14.10
2009,05,23,08,58,14.10
2009,05,23,08,59,14.10
2009,05,23,09,00,14.10
2009,05,23,09,01,14.00
2009,05,23,09,02,13.90
2009,05,23,09,03,13.80
2009,05,23,09,04,13.70
2009,05,23,09,05,13.60
2009,05,23,09,06,13.60
2009,05,23,09,07,13.60
2009,05,23,09,08,13.70
2009,05,23,09,09,13.80
2009,05,23,09,10,13.80
2009,05,23,09,11,13.90
2009,05,23,09,12,14.00
2009,05,23,09,13,14.10
2009,05,23,09,14,14.20
2009,05,23,09,15,14.20
2009,05,23,09,16,14.20
2009,05,23,09,17,14.30
2009,05,23,09,18,14.30
2009,05,23,09,19,14.40
2009,05,23,09,20,14.50
2009,05,23,09,21,14.50
2009,05,23,09,22,14.60
2009,05,23,09,23,14.60
2009,05,23,09,24,14.70
2009,05,23,09,25,14.70
2009,05,23,09,26,14.70
2009,05,23,09,27,14.60
2009,05,23,09,28,14.60
2009,05,23,09,29,14.60
2009,05,23,09,30,14.60
2009,05,23,09,31,14.60
2009,05,23,09,32,14.70
2009,05,23,09,33,14.80
2009,05,23,09,34,14.90
2009,05,23,09,35,15.00
2009,05,23,09,36,14.90
2009,05,23,09,37,14.80
2009,05,23,09,38,14.60
2009,05,23,09,39,14.50
2009,05,23,09,40,14.30
2009,05,23,09,41,14.20
2009,05,23,09,42,14.10
2009,05,23,09,43,14.10
2009,05,23,09,44,14.10
2009,05,23,09,45,14.10
2009,05,23,09,46,14.10
2009,05,23,09,47,14.00
2009,05,23,09,48,14.00
2009,05,23,09,49,14.00
2009,05,23,09,50,13.90
2009,05,23,09,51,13.90
2009,05,23,09,52,13.90
2009,05,23,09,53,13.90
2009,05,23,09,54,13.90
2009,05,23,09,55,13.90
2009,05,23,09,56,13.90
2009,05,23,09,57,14.00
2009,05,23,09,58,14.00
2009,05,23,09,59,14.10
2009,05,23,10,00,14.20
2009,05,23,10,01,14.20
2009,05,23,10,02,14.20
2009,05,23,10,03,14.20
2009,05,23,10,04,14.10
2009,05,23,10,05,14.10
2009,05,23,10,06,14.10
2009,05,23,10,07,14.20
2009,05,23,10,08,14.30
2009,05,23,10,09,14.30
2009,05,23,10,10,14.30
2009,05,23,10,11,14.30
2009,05,23,10,12,14.40
2009,05,23,10,13,14.50
2009,05,23,10,14,14.60
2009,05,23,10,15,14.80
2009,05,23,10,16,14.80
2009,05,23,10,17,14.80
2009,05,23,10,18,14.70
2009,05,23,10,19,14.70
2009,05,23,10,20,14.70
2009,05,23,10,21,14.80
2009,05,23,10,22,14.80
2009,05,23,10,23,14.80
2009,05,23,10,24,14.90
2009,05,23,10,25,15.00
2009,05,23,10,26,15.00
2009,05,23,10,27,15.00
2009,05,23,10,28,15.00
2009,05,23,10,29,15.00
2009,05,23,10,30,15.00
2009,05,23,10,31,14.90
2009,05,23,10,32,14.80
2009,05,23,10,33,14.80
2009,05,23,10,34,14.80
2009,05,23,10,35,14.70
2009,05,23,10,36,14.70
2009,05,23,10,37,14.80
2009,05,23,10,38,14.70
2009,05,23,10,39,14.70
2009,05,23,10,40,14.70
2009,05,23,10,41,14.70
2009,05,23,10,42,14.70
2009,05,23,10,43,14.70
2009,05,23,10,44,14.80
2009,05,23,10,45,14.80
2009,05,23,10,46,14.80
2009,05,23,10,47,14.80
2009,05,23,10,48,14.80
2009,05,23,10,49,14.80
2009,05,23,10,50,15.00
2009,05,23,10,51,15.00
2009,05,23,10,52,15.10
2009,05,23,10,53,15.30
2009,05,23,10,54,15.40
2009,05,23,10,55,15.40
2009,05,23,10,56,15.40
2009,05,23,10,57,15.40
2009,05,23,10,58,15.40
2009,05,23,10,59,15.40
2009,05,23,11,00,15.50
2009,05,23,11,01,15.50
2009,05,23,11,02,15.50
2009,05,23,11,03,15.50
2009,05,23,11,04,15.50
2009,05,23,11,05,15.60
2009,05,23,11,06,15.80
2009,05,23,11,07,15.90
2009,05,23,11,08,16.00
2009,05,23,11,09,16.00
2009,05,23,11,10,16.10
2009,05,23,11,11,16.10
2009,05,23,11,12,16.10
2009,05,23,11,13,16.20
2009,05,23,11,14,16.20
2009,05,23,11,15,16.30
2009,05,23,11,16,16.30
2009,05,23,11,17,16.40
2009,05,23,11,18,16.50
2009,05,23,11,19,16.50
2009,05,23,11,20,16.60
2009,05,23,11,21,16.60
2009,05,23,11,22,16.60
2009,05,23,11,23,16.50
2009,05,23,11,24,16.50
2009,05,23,11,25,16.50
2009,05,23,11,26,16.50
2009,05,23,11,27,16.50
2009,05,23,11,28,16.50
2009,05,23,11,29,16.50
2009,05,23,11,30,16.50
2009,05,23,11,31,16.50
2009,05,23,11,32,16.50
2009,05,23,11,33,16.50
2009,05,23,11,34,16.60
2009,05,23,11,35,16.70
2009,05,23,11,36,16.80
2009,05,23,11,37,16.80
2009,05,23,11,38,16.80
2009,05,23,11,39,16.70
2009,05,23,11,40,16.70
2009,05,23,11,41,16.70
2009,05,23,11,42,16.70
2009,05,23,11,43,16.70
2009,05,23,11,44,16.70
2009,05,23,11,45,16.80
2009,05,23,11,46,16.70
2009,05,23,11,47,16.60
2009,05,23,11,48,16.60
2009,05,23,11,49,16.60
2009,05,23,11,50,16.40
2009,05,23,11,51,16.20
2009,05,23,11,52,16.20
2009,05,23,11,53,16.10
2009,05,23,11,54,16.00
2009,05,23,11,55,16.00
2009,05,23,11,56,15.90
2009,05,23,11,57,15.80
2009,05,23,11,58,15.60
2009,05,23,11,59,15.60
2009,05,23,12,00,15.60
2009,05,23,12,01,15.60
2009,05,23,12,02,15.60
2009,05,23,12,03,15.60
2009,05,23,12,04,15.60
2009,05,23,12,05,15.50
2009,05,23,12,06,15.50
2009,05,23,12,07,15.50
2009,05,23,12,08,15.50
2009,05,23,12,09,15.40
2009,05,23,12,10,15.40
2009,05,23,12,11,15.40
2009,05,23,12,12,15.40
2009,05,23,12,13,15.40
2009,05,23,12,14,15.50
2009,05,23,12,15,15.60
2009,05,23,12,16,15.70
2009,05,23,12,17,15.70
2009,05,23,12,18,15.80
2009,05,23,12,19,15.90
2009,05,23,12,20,16.00
2009,05,23,12,21,16.10
2009,05,23,12,22,16.20
2009,05,23,12,23,16.30
2009,05,23,12,24,16.40
2009,05,23,12,25,16.40
2009,05,23,12,26,16.50
2009,05,23,12,27,16.60
2009,05,23,12,28,16.70
2009,05,23,12,29,16.70
2009,05,23,12,30,16.80
2009,05,23,12,31,16.90
2009,05,23,12,32,16.90
2009,05,23,12,33,16.90
2009,05,23,12,34,16.90
2009,05,23,12,35,16.90
2009,05,23,12,36,17.00
2009,05,23,12,37,17.00
2009,05,23,12,38,17.10
2009,05,23,12,39,17.30
2009,05,23,12,40,17.40
2009,05,23,12,41,17.40
2009,05,23,12,42,17.40
2009,05,23,12,43,17.40
2009,05,23,12,44,17.40
2009,05,23,12,45,17.50
2009,05,23,12,46,17.50
2009,05,23,12,47,17.70
2009,05,23,12,48,17.80
2009,05,23,12,49,17.90
2009,05,23,12,50,18.00
2009,05,23,12,51,18.00
2009,05,23,12,52,17.90
2009,05,23,12,53,17.70
2009,05,23,12,54,17.70
2009,05,23,12,55,17.70
2009,05,23,12,56,17.80
2009,05,23,12,57,17.90
2009,05,23,12,58,18.00
2009,05,23,12,59,18.10
2009,05,23,13,00,18.20
2009,05,23,13,01,18.20
2009,05,23,13,02,17.90
2009,05,23,13,03,17.80
2009,05,23,13,04,17.50
2009,05,23,13,05,17.40
2009,05,23,13,06,17.40
2009,05,23,13,07,17.50
2009,05,23,13,08,17.60
2009,05,23,13,09,17.70
2009,05,23,13,10,17.70
2009,05,23,13,11,17.60
2009,05,23,13,12,17.50
2009,05,23,13,13,17.40
2009,05,23,13,14,17.30
2009,05,23,13,15,17.20
2009,05,23,13,16,17.20
2009,05,23,13,17,17.10
2009,05,23,13,18,17.10
2009,05,23,13,19,17.10
2009,05,23,13,20,17.10
2009,05,23,13,21,17.20
2009,05,23,13,22,17.20
2009,05,23,13,23,17.30
2009,05,23,13,24,17.40
2009,05,23,13,25,17.50
2009,05,23,13,26,17.60
2009,05,23,13,27,17.80
2009,05,23,13,28,17.80
2009,05,23,13,29,17.70
2009,05,23,13,30,17.60
2009,05,23,13,31,17.40
2009,05,23,13,32,17.30
2009,05,23,13,33,17.30
2009,05,23,13,34,17.30
2009,05,23,13,35,17.40
2009,05,23,13,36,17.50
2009,05,23,13,37,17.70
2009,05,23,13,38,17.90
2009,05,23,13,39,18.00
2009,05,23,13,40,18.10
2009,05,23,13,41,18.30
2009,05,23,13,42,18.30
2009,05,23,13,43,18.40
2009,05,23,13,44,18.50
2009,05,23,13,45,18.60
2009,05,23,13,46,18.60
2009,05,23,13,47,18.60
2009,05,23,13,48,18.40
2009,05,23,13,49,18.30
2009,05,23,13,50,18.20
2009,05,23,13,51,18.10
2009,05,23,13,52,18.10
2009,05,23,13,53,18.20
2009,05,23,13,54,18.10
2009,05,23,13,55,18.20
2009,05,23,13,56,18.20
2009,05,23,13,57,18.20
2009,05,23,13,58,18.20
2009,05,23,13,59,18.20
2009,05,23,14,00,18.20
2009,05,23,14,01,18.20
2009,05,23,14,02,18.20
2009,05,23,14,03,18.20
2009,05,23,14,04,18.20
2009,05,23,14,05,18.20
2009,05,23,14,06,17.90
2009,05,23,14,07,17.90
2009,05,23,14,08,18.00
2009,05,23,14,09,18.00
2009,05,23,14,10,17.90
2009,05,23,14,11,17.80
2009,05,23,14,12,17.90
2009,05,23,14,13,18.00
2009,05,23,14,14,18.20
2009,05,23,14,15,18.40
2009,05,23,14,16,18.50
2009,05,23,14,17,18.50
2009,05,23,14,18,18.30
2009,05,23,14,19,18.20
2009,05,23,14,20,18.20
2009,05,23,14,21,18.20
2009,05,23,14,22,18.20
2009,05,23,14,23,18.00
2009,05,23,14,24,17.90
2009,05,23,14,25,17.80
2009,05,23,14,26,17.70
2009,05,23,14,27,17.60
2009,05,23,14,28,17.50
2009,05,23,14,29,17.50
2009,05,23,14,30,17.60
2009,05,23,14,31,17.60
2009,05,23,14,32,17.60
2009,05,23,14,33,17.70
2009,05,23,14,34,17.80
2009,05,23,14,35,17.90
2009,05,23,14,36,18.10
2009,05,23,14,37,18.10
2009,05,23,14,38,18.10
2009,05,23,14,39,18.00
2009,05,23,14,40,17.90
2009,05,23,14,41,17.90
2009,05,23,14,42,17.80
2009,05,23,14,43,17.70
2009,05,23,14,44,17.70
2009,05,23,14,45,17.80
2009,05,23,14,46,17.90
2009,05,23,14,47,17.90
2009,05,23,14,48,17.90
2009,05,23,14,49,17.80
2009,05,23,14,50,17.80
2009,05,23,14,51,17.80
2009,05,23,14,52,17.80
2009,05,23,14,53,17.90
2009,05,23,14,54,18.00
2009,05,23,14,55,18.10
2009,05,23,14,56,18.10
2009,05,23,14,57,18.20
2009,05,23,14,58,18.40
2009,05,23,14,59,18.50
2009,05,23,15,00,18.70
2009,05,23,15,01,18.80
2009,05,23,15,02,18.90
2009,05,23,15,03,19.00
2009,05,23,15,04,18.90
2009,05,23,15,05,18.90
2009,05,23,15,06,18.90
2009,05,23,15,07,18.90
2009,05,23,15,08,18.90
2009,05,23,15,09,19.00
2009,05,23,15,10,19.10
2009,05,23,15,11,19.10
2009,05,23,15,12,19.20
2009,05,23,15,13,19.30
2009,05,23,15,14,19.40
2009,05,23,15,15,19.40
2009,05,23,15,16,19.50
2009,05,23,15,17,19.60
2009,05,23,15,18,19.60
2009,05,23,15,19,19.60
2009,05,23,15,20,19.70
2009,05,23,15,21,19.70
2009,05,23,15,22,19.70
2009,05,23,15,23,19.70
2009,05,23,15,24,19.80
2009,05,23,15,25,19.80
2009,05,23,15,26,19.90
2009,05,23,15,27,20.00
2009,05,23,15,28,20.00
2009,05,23,15,29,20.10
2009,05,23,15,30,20.30
2009,05,23,15,31,20.40
2009,05,23,15,32,20.60
2009,05,23,15,33,20.70
2009,05,23,15,34,20.80
2009,05,23,15,35,21.00
2009,05,23,15,36,21.10
2009,05,23,15,37,21.20
2009,05,23,15,38,21.30
2009,05,23,15,39,21.30
2009,05,23,15,40,21.40
2009,05,23,15,41,21.40
2009,05,23,15,42,21.40
2009,05,23,15,43,21.20
2009,05,23,15,44,21.10
2009,05,23,15,45,20.90
2009,05,23,15,46,20.70
2009,05,23,15,47,20.60
2009,05,23,15,48,20.60
2009,05,23,15,49,20.70
2009,05,23,15,50,20.90
2009,05,23,15,51,20.80
2009,05,23,15,52,20.90
2009,05,23,15,53,20.90
2009,05,23,15,54,21.00
2009,05,23,15,55,20.80
2009,05,23,15,56,20.70
2009,05,23,15,57,20.70
2009,05,23,15,58,20.60
2009,05,23,15,59,20.60
2009,05,23,16,00,20.60
2009,05,23,16,01,20.70
2009,05,23,16,02,20.90
2009,05,23,16,03,21.00
2009,05,23,16,04,21.10
2009,05,23,16,05,21.10
2009,05,23,16,06,21.10
2009,05,23,16,07,21.20
2009,05,23,16,08,21.20
2009,05,23,16,09,21.20
2009,05,23,16,10,21.10
2009,05,23,16,11,21.10
2009,05,23,16,12,21.10
2009,05,23,16,13,21.10
2009,05,23,16,14,21.10
2009,05,23,16,15,21.10
2009,05,23,16,16,21.10
2009,05,23,16,17,21.10
2009,05,23,16,18,21.00
2009,05,23,16,19,20.90
2009,05,23,16,20,20.90
2009,05,23,16,21,20.90
2009,05,23,16,22,21.00
2009,05,23,16,23,21.00
2009,05,23,16,24,21.10
2009,05,23,16,25,21.20
2009,05,23,16,26,21.20
2009,05,23,16,27,21.30
2009,05,23,16,28,21.20
2009,05,23,16,29,21.20
2009,05,23,16,30,21.20
2009,05,23,16,31,21.10
2009,05,23,16,32,21.00
2009,05,23,16,33,20.90
2009,05,23,16,34,20.90
2009,05,23,16,35,21.00
2009,05,23,16,36,21.00
2009,05,23,16,37,20.90
2009,05,23,16,38,20.80
2009,05,23,16,39,20.90
2009,05,23,16,40,20.80
2009,05,23,16,41,20.70
2009,05,23,16,42,20.70
2009,05,23,16,43,20.80
2009,05,23,16,44,20.80
2009,05,23,16,45,20.80
2009,05,23,16,46,20.80
2009,05,23,16,47,20.90
2009,05,23,16,48,21.00
2009,05,23,16,49,21.10
2009,05,23,16,50,21.10
2009,05,23,16,51,21.20
2009,05,23,16,52,21.10
2009,05,23,16,53,21.10
2009,05,23,16,54,21.00
2009,05,23,16,55,21.00
2009,05,23,16,56,21.00
2009,05,23,16,57,20.90
2009,05,23,16,58,20.80
2009,05,23,16,59,20.80
2009,05,23,17,00,20.80
2009,05,23,17,01,20.80
2009,05,23,17,02,20.90
2009,05,23,17,03,21.00
2009,05,23,17,04,21.10
2009,05,23,17,05,21.10
2009,05,23,17,06,21.10
2009,05,23,17,07,21.10
2009,05,23,17,08,21.00
2009,05,23,17,09,20.90
2009,05,23,17,10,20.90
2009,05,23,17,11,20.90
2009,05,23,17,12,20.80
2009,05,23,17,13,20.70
2009,05,23,17,14,20.70
2009,05,23,17,15,20.70
2009,05,23,17,16,20.60
2009,05,23,17,17,20.60
2009,05,23,17,18,20.50
2009,05,23,17,19,20.50
2009,05,23,17,20,20.60
2009,05,23,17,21,20.60
2009,05,23,17,22,20.50
2009,05,23,17,23,20.50
2009,05,23,17,24,20.40
2009,05,23,17,25,20.50
2009,05,23,17,26,20.50
2009,05,23,17,27,20.60
2009,05,23,17,28,20.70
2009,05,23,17,29,20.90
2009,05,23,17,30,21.00
2009,05,23,17,31,21.10
2009,05,23,17,32,21.10
2009,05,23,17,33,21.10
2009,05,23,17,34,21.00
2009,05,23,17,35,21.00
2009,05,23,17,36,21.00
2009,05,23,17,37,20.90
2009,05,23,17,38,20.80